User: anonymous   Login
Location: Irma
(52.9170°N, 111.2330°W)
Time: 10:29:21
(UTC-07:00)
Language:

Meteor 1-24 Rocket - Orbit

View from above orbital plane
View from above orbital plane
View from above satellite
View from above satellite

Ground track
Ground track

The orbit data is extracted from the following two-line orbital elements,

1 08800U 76032B   17053.18670046  .00000045  00000-0  17023-4 0  9998
2 08800  81.2535 329.2142 0094500 150.6857 209.9664 14.10083995101979
Epoch (UTC): 22 February 2017 04:28:50
Eccentricity: 0.0094500
inclination: 81.2535°
perigee height: 790 km
apogee height: 927 km
right ascension of ascending node: 329.2142°
argument of perigee: 150.6857°
revolutions per day: 14.10083995
mean anomaly at epoch: 209.9664°
orbit number at epoch: 10197

The dashed part of the orbit path shows where the satellite is in the earth's shadow,  

DLR